7 * 24
多渠道服务支持
STARLINK-32406 是 SpaceX Starlink 项目中的一颗低轨通信卫星,属于第三代 Starlink 卫星(也称为 v1.5 或 Block V)。该卫星于 2023 年发射,旨在为全球提供高速互联网服务。它运行在约 550 公里的轨道高度,具备改进的推进系统和通信能力,支持更广泛的覆盖和更低的延迟。Starlink 卫星群由数千颗卫星组成,致力于实现全球宽带网络覆盖,尤其服务于偏远地区。
美国
(US)
| 数据来源 | 国际轨道数据 |
| 星历时间: | 2025-12-20T03:06:06+0800 13小时前 查看轨道信息 |
| 半长轴: | 6853.393km |
| 偏心率: | 0.0000912 |
| 轨道倾角: | 53.161° |
| 近地点辐角 | 111.615° |
| 升交点赤经 | 25.128° |
| 平近点角 | 248.494° |
| 近地点: | 474.63km |
| 远地点: | 475.882km |
| 周期: | 94.106分钟 |
| 每日圈数: | 15.301864 |